Regional Weather Roundup
Issued by NWS

Home | Current Version | Previous Version | Text Only | Print | Product List | Glossary Off
Versions: 1 2 3 4 5 6 7 8 9 10 11 12 13 14 15 16 17 18 19 20 21 22 23 24 25 26 27 28 29 30 31 32 33 34 35 36 37 38 39 40 41 42 43 44 45 46 47 48 49 50

000
ASUS43 KLOT 250012
RWRIL

ILLINOIS REGIONAL WEATHER ROUNDUP
NATIONAL WEATHER SERVICE CHICAGO/ROMEOVILLE IL
700 PM CDT SUN MAY 24 2015

NOTE: "FAIR" INDICATES FEW OR NO CLOUDS BELOW 12,000 FEET WITH NO
SIGNIFICANT WEATHER AND/OR OBSTRUCTIONS TO VISIBILITY.

* THESE STATIONS ARE NOT UNDER NWS QUALITY CONTROL. THEY ALSO MAY NOT
  REPORT WEATHER SUCH AS PRECIPITATION OR FOG.

ILZ001-002-007-009-015-016-024-250100-
NORTHWEST ILLINOIS

CITY           SKY/WX    TMP DP  RH WIND       PRES   REMARKS
MOLINE         PTSUNNY   72  67  84 S8        29.83F
6HR MIN TEMP:  68; 6HR MAX TEMP:  77; 6HR PCP:  0.19;

STERLING*      CLOUDY    72  66  83 SE5       29.87F
SAVANNA*       LGT RAIN  70  67  91 SE3       29.87S
$$

ILZ003-004-008-010-011-017-018-250100-
NORTH CENTRAL ILLINOIS

CITY           SKY/WX    TMP DP  RH WIND       PRES   REMARKS
ROCKFORD       TSTM      66  61  84 SE5       29.92S
6HR MIN TEMP:  66; 6HR MAX TEMP:  69; 6HR PCP:  0.08;

FREEPORT*      CLOUDY    66  65  95 SE8       29.91R
ROCHELLE*      CLOUDY    70  68  93 CALM      29.91R THUNDER
DE KALB*       PTSUNNY   66  62  86 E10       29.92S
PERU*          MOSUNNY   80  63  54 S15G21    29.88F HX  81
$$

ILZ005-006-012>014-019>023-250100-
NORTHEAST ILLINOIS

CITY           SKY/WX    TMP DP  RH WIND       PRES   REMARKS
CHICAGO-OHARE  PTSUNNY   65  61  87 E9        29.93F
6HR MIN TEMP:  63; 6HR MAX TEMP:  71; 6HR PCP:  0.36;

CHICAGO-MIDWAY PTSUNNY   68  65  90 E6        29.93F
6HR MIN TEMP:  64; 6HR MAX TEMP:  75; 6HR PCP:  0.39;

AURORA         PTSUNNY   71  65  81 E12       29.91F
6HR MIN TEMP:  68; 6HR MAX TEMP:  78; 6HR PCP:  0.27;

LANSING*       CLOUDY    78  58  50 S10G17    29.94F
JOLIET*        CLOUDY    72  70  93 CALM      29.92S
WAUKEGAN       PTSUNNY   56  53  90 E7        29.95F
6HR MIN TEMP:  55; 6HR MAX TEMP:  63; 6HR PCP:  0.07;

DUPAGE AIRPORT LGT RAIN  68  65  90 SE7       29.92F FOG
6HR MIN TEMP:  65; 6HR MAX TEMP:  77; 6HR PCP:  0.17;

KANKAKEE*      PTSUNNY   80  62  55 S17G24    29.95R HX  81
WHEELING       PTSUNNY   63  59  87 VRB3      29.95F
6HR MIN TEMP:  61; 6HR MAX TEMP:  67; 6HR PCP:  0.26;

MORRIS*        PTSUNNY   76  65  68 S14       29.90F
ROMEOVILLE*    CLOUDY    68  66  94 E7        29.92F FOG
NORTHERLY ISL    N/A     58  55  90 N3          N/A
$$

LMZ740>746-250100-
SOUTHERN LAKE MICHIGAN

STATION/POSITION SKY/WX   TEMP    WIND        PRES    VSBY  WAVE
                          AIR SEA DIR/SP/G                  HT/PER
                          (F)     (DEG/KT/KT) (MB)    (MI)  (FT/S)
SOUTHERN BUOY              47 38   90/ 10/ 12 1015.9F         1
HARRISON CRIB              60      50/ 12/ 14   N/A
BURNHAM HARBOR             58     330/  1/  6   N/A
CALUMET HARBOR             60     350/  3/  4   N/A
BURNS HARBOR               66     360/  2/ 19 1014.9F
MICHIGAN CITY              80     160/ 14/ 21   N/A
MICHIGAN CITY 6N           64 55   10/  4/  6   N/A           1
ST. JOSEPH                 63 56  100/  6/  8   N/A           1
$$

ILZ025>027-034>036-040-047-049-050-058-095>099-250100-
WEST-CENTRAL ILLINOIS

CITY           SKY/WX    TMP DP  RH WIND       PRES   REMARKS
QUINCY         LGT RAIN  69  66  90 S9        29.87F
GALESBURG*     PTSUNNY   75  67  76 S8        29.86S
MACOMB*        PTSUNNY   75  67  76 S9        29.88S
JACKSONVILLE*  PTSUNNY   84  64  52 S22G30    29.87F HX  85
PITTSFIELD*    PTSUNNY   75  64  69 W9        29.89R
$$

ILZ028>032-037-038-041>044-048-051>054-059>061-250100-
CENTRAL ILLINOIS

CITY           SKY/WX    TMP DP  RH WIND       PRES   REMARKS
PONTIAC        PTSUNNY   83  63  49 S22G32    29.92S HX  84
BLOOMINGTON    MOSUNNY   81  64  55 S22G30    29.93S HX  82
DECATUR        CLOUDY    81  62  52 S18G28    29.94S HX  82
PEORIA         LGT RAIN  81  63  54 S13G26    29.87S HX  82
6HR MIN TEMP:  74; 6HR MAX TEMP:  85; 6HR PCP:  0.01;

LACON*         PTSUNNY   80  62  54 S10       29.86F HX  81
LINCOLN*       MOSUNNY   83  62  48 S21G28    29.88S HX  83
SPRINGFIELD    LGT RAIN  78  66  66 S17G35    29.91R HX  80
6HR MIN TEMP:  78; 6HR MAX TEMP:  88; 6HR PCP: TRACE;

TAYLORVILLE    PTSUNNY   79  63  57 S17       29.92F HX  80
$$

ILZ033-039-045-046-055>057-062-063-250100-
EAST-CENTRAL ILLINOIS

CITY           SKY/WX    TMP DP  RH WIND       PRES   REMARKS
CHAMPAIGN      MOSUNNY   82  60  47 S23G35    29.96S HX  82
DANVILLE*      MOSUNNY   80  62  52 S16       29.96S HX  81
RANTOUL*       PTSUNNY   83  61  47 S23G30    29.96S HX  84
MATTOON        MOSUNNY   80  62  54 S20G31    29.96F HX  81
PARIS*         SUNNY     82  61  49 S16       30.00S HX  82
$$

ILZ079-100>102-250100-
SOUTHWEST ILLINOIS

CITY           SKY/WX    TMP DP  RH WIND       PRES   REMARKS
ALTON          PTSUNNY   79  64  61 S14       29.91S HX  81
BELLEVILLE     PTSUNNY   80  67  65 SE12G18   29.90F HX  82
CAHOKIA*       PTSUNNY   80  65  59 S10G24    29.90F HX  82
SPARTA*        PTSUNNY   79  65  60 SE9G21    29.94F HX  81
$$

ILZ064>066-069>071-074>076-080>082-084>086-088>090-092>094-250100-
SOUTH-CENTRAL ILLINOIS

CITY           SKY/WX    TMP DP  RH WIND       PRES   REMARKS
CARBONDALE     PTSUNNY   82  64  54 SE15G22   29.94F HX  83
6HR MIN TEMP:  82; 6HR MAX TEMP:  86;

CAIRO*         MOSUNNY   80  67  64 SE15G21   29.96R HX  82
EFFINGHAM*     PTSUNNY   81  58  46 SE12G20   29.98S HX  81
MARION         PTSUNNY   82  66  57 SE9       29.97F HX  85
MT. VERNON     PTSUNNY   81  64  57 SE13G21   29.98S HX  82
CENTRALIA*     PTSUNNY   80  63  55 SE15G21   29.95S HX  81
SALEM*         PTSUNNY   83  63  51 SE10      29.96F HX  84
METROPOLIS*    LGT RAIN  82  67  60 S12G18    29.98S HX  84
$$

ILZ067-068-072-073-078-083-087-091-250100-
SOUTHEAST ILLINOIS

CITY           SKY/WX    TMP DP  RH WIND       PRES   REMARKS
LAWRENCEVILLE  PTSUNNY   81  62  52 S14       30.01S HX  82
FLORA*         PTSUNNY   81  63  53 S15       29.98F HX  82
FAIRFIELD*     CLOUDY    82  65  55 SE15      29.97S HX  83
HARRISBURG*    CLOUDY    81  65  59 S13       30.00F HX  82
ROBINSON*      PTSUNNY   81  61  51 S15G21    30.02R HX  82
CARMI*         PTSUNNY   82  61  47 SE15G21   29.99F HX  83
$$

ABBREVIATIONS USED IN REMARKS
   TC - TEMPERATURE IN CELSIUS
  WCI - WIND CHILL INDEX
   HX - HEAT INDEX
  VSB - VISIBILITY
$$




USA.gov is the U.S. government's official web portal to all federal, state and local government web resources and services.